Wind_Speed
3 4 3 4 3 3 3 4 4 5 7 7 7 8 8 7 7 7 7 7 8 9 9 9 9 10 10 10 11 11 11 11 11 11 12 12 12 12 12 12 12 12 11
4 4 4 5 5 5 5 5 6 7 7 7 7 7 8 8 9 9 8 8 9 9 10 10 10 11 11 11 11 12 12 12 12 12 13 13 13 13 14 14 14 14 14
6 6 6 6 7 8 7 7 7 7 8 8 8 9 8 8 9 9 10 9 9 10 10 11 12 12 12 12 12 12 13 13 13 13 13 13 14 14 15 14 14 15 15
9 8 8 8 8 9 8 8 8 8 9 9 9 9 9 9 9 10 10 10 10 11 11 11 12 12 11 12 12 13 13 14 14 13 14 15 15 14 15 14 14 14 14
10 10 10 10 9 9 10 9 9 9 9 9 9 9 9 9 10 10 10 11 11 11 11 11 11 11 12 12 13 13 14 14 14 14 14 14 15 15 14 14 14 15 15
12 11 10 10 10 10 10 11 10 10 10 10 10 11 11 11 11 11 12 12 12 11 11 12 12 12 12 13 14 14 14 14 14 14 14 14 15 15 15 15 15 16 16
13 13 11 11 11 11 10 10 10 10 10 11 11 11 12 12 12 12 13 13 13 13 13 13 13 13 14 14 14 15 15 15 15 16 15 15 16 16 15 15 15 16 16
14 14 13 13 12 12 12 12 11 11 11 11 12 12 12 13 13 14 14 14 14 14 14 14 14 14 14 15 15 16 16 16 16 16 16 16 16 17 16 17 16 16 16
15 15 14 13 13 13 13 13 13 13 13 13 13 14 14 13 14 14 14 15 14 14 14 14 14 15 15 15 15 15 16 16 16 16 16 16 16 17 18 18 17 17 17
18 17 16 15 14 14 14 14 15 15 14 14 14 15 15 15 15 15 15 15 15 15 15 15 15 16 16 16 16 16 16 16 16 16 16 17 17 18 18 18 18 18 18
21 19 18 16 15 15 15 15 16 16 16 16 15 15 15 16 16 16 16 15 16 16 16 16 17 17 17 17 17 17 16 17 17 17 17 18 18 18 18 18 19 19 18
21 20 19 17 17 17 17 18 17 17 17 17 17 16 16 16 17 16 17 17 17 18 18 18 18 18 18 18 18 18 17 18 17 17 18 18 18 18 19 19 19 19 18
21 20 20 19 19 20 20 20 19 19 18 18 18 17 17 17 18 17 17 18 18 19 19 18 18 18 18 18 18 18 18 18 18 18 18 18 19 19 19 19 19 19 18
22 22 21 21 22 22 22 22 21 21 20 19 19 18 18 18 18 18 18 18 18 19 19 19 19 19 19 18 18 18 18 18 18 18 18 18 18 19 19 19 20 20 19
24 23 23 23 23 23 23 23 22 22 21 20 20 20 19 19 19 19 18 18 19 19 19 19 19 20 20 19 18 19 19 18 19 18 18 18 19 19 19 19 20 20 20
24 24 24 24 24 23 22 22 22 23 22 21 21 20 20 20 20 20 19 19 19 19 19 19 19 19 19 19 18 18 19 19 19 19 20 19 19 20 20 21 21 21 21
25 25 25 25 23 23 23 23 22 22 22 22 22 21 21 21 21 21 20 20 19 20 20 19 19 19 19 19 19 19 20 20 20 20 20 21 20 20 20 21 21 22 22
26 26 27 26 25 24 24 23 23 23 22 22 21 21 21 21 22 22 21 20 20 20 20 20 20 20 19 19 20 20 21 21 21 21 21 21 21 21 21 22 22 22 22
28 28 27 27 26 26 25 24 24 24 23 23 22 21 21 21 21 21 21 20 20 20 20 20 20 20 21 21 21 21 22 22 22 23 21 21 21 21 22 22 23 22 22
29 28 28 28 28 27 26 25 25 25 25 24 23 22 21 21 20 20 20 20 19 20 20 20 20 21 22 22 22 22 22 22 22 22 22 21 21 21 21 21 22 22 22
30 30 29 28 27 27 27 27 26 26 26 25 24 23 22 21 21 21 21 20 20 21 21 22 22 22 22 22 22 22 23 23 22 21 21 21 22 22 21 21 21 22 22
30 28 28 27 27 26 26 28 28 27 26 26 25 24 23 23 22 22 22 21 22 22 22 23 23 23 23 23 23 23 23 22 22 21 21 20 21 21 22 22 21 21 22
28 28 27 27 28 28 28 28 28 29 28 27 27 25 24 24 23 23 23 23 23 23 23 23 23 24 24 23 23 23 23 22 21 21 21 21 22 22 22 22 22 22 22
29 28 27 28 28 29 30 31 31 30 29 29 28 27 26 25 25 25 24 24 24 24 24 24 24 24 24 24 24 24 23 23 22 22 22 22 22 23 23 22 22 22 22
29 29 29 30 30 29 29 29 30 30 30 30 30 29 28 27 26 25 25 25 25 25 25 25 25 25 25 25 25 24 23 22 22 22 22 22 22 23 23 22 22 23 23
29 29 30 31 31 31 30 30 31 31 30 30 30 30 29 29 28 27 26 26 26 25 25 25 25 25 24 24 24 24 23 23 23 23 23 23 23 23 23 23 23 23 23
Wind_Direction
301 309 300 288 280 271 274 277 277 277 269 270 269 264 266 268 266 269 270 271 271 271 271 270 267 265 264 264 264 265 267 267 268 268 269 267 267 269 271 269 267 267 270
296 298 291 276 272 267 263 265 269 265 264 266 266 267 266 267 266 268 268 270 271 273 273 271 270 270 268 265 264 265 265 268 270 271 269 269 269 271 272 269 268 267 267
288 294 293 280 275 272 267 260 263 265 266 265 265 263 264 266 269 269 269 269 271 272 272 272 271 270 268 266 265 266 266 267 270 271 270 271 273 274 273 272 270 269 267
280 283 284 283 281 276 271 263 265 266 266 268 269 266 267 270 273 272 271 270 270 271 273 274 273 269 267 267 267 268 269 269 270 271 269 272 274 274 273 271 270 270 269
280 280 276 278 279 279 275 272 273 270 269 272 272 269 269 273 276 275 271 272 273 273 274 276 275 269 267 269 271 272 273 274 274 273 273 272 273 271 272 272 271 270 269
277 278 277 275 273 274 275 275 276 275 273 273 273 272 272 273 276 274 273 273 274 273 275 276 275 272 271 271 274 276 275 275 275 274 275 274 272 271 273 273 273 271 269
275 274 275 274 271 271 272 271 271 275 275 275 273 276 275 274 277 275 274 275 276 275 276 277 275 273 271 272 274 275 274 274 274 272 273 272 271 272 272 271 271 270 269
276 274 272 272 269 268 269 268 270 273 276 277 275 276 278 276 278 278 276 274 274 275 276 276 274 273 273 273 274 274 275 274 275 273 272 272 271 272 272 272 271 270 270
273 275 272 271 270 267 267 269 272 274 276 276 275 273 275 275 277 278 276 273 272 275 277 277 275 275 276 275 274 274 274 273 274 273 272 272 273 273 273 273 272 270 270
272 274 271 269 268 269 268 269 272 274 275 276 274 274 275 273 274 276 276 275 275 276 277 279 278 279 278 278 279 280 279 277 277 275 274 275 275 274 273 274 275 272 270
272 271 268 267 267 268 270 270 271 274 275 275 274 275 275 273 274 276 275 276 278 278 279 280 279 278 278 277 277 278 279 279 279 276 275 274 274 274 275 275 275 274 271
272 268 262 263 266 266 268 269 270 272 275 276 274 275 277 277 278 278 277 277 278 278 278 279 279 278 278 276 276 277 277 277 277 276 277 276 275 276 276 275 274 273 270
271 269 268 265 265 265 265 268 271 272 273 275 275 275 276 277 278 278 278 278 278 277 277 277 278 279 278 277 276 275 275 276 276 276 277 277 276 276 274 274 273 273 271
273 269 269 270 267 265 265 268 270 271 271 273 273 274 275 276 278 279 277 277 277 277 276 276 278 279 278 280 277 274 273 274 276 277 278 280 278 276 274 271 271 271 270
269 266 268 270 271 268 266 267 268 268 268 270 272 272 273 273 274 277 276 275 275 276 275 277 279 280 278 280 278 275 273 274 275 276 278 279 278 276 273 272 270 270 270
268 267 268 269 269 268 266 267 268 269 268 267 271 273 273 273 272 274 271 273 273 275 276 276 279 279 278 277 279 278 275 274 276 276 277 277 278 276 273 273 272 271 271
269 266 267 269 269 266 264 265 267 267 268 269 270 272 272 272 273 273 270 272 273 274 273 274 276 278 279 279 278 278 277 275 275 276 277 277 277 276 274 274 272 271 271
268 268 268 268 268 266 264 264 265 265 266 267 269 270 271 271 272 271 270 271 272 273 273 274 275 278 280 280 279 279 279 278 278 278 277 277 277 276 275 273 272 272 271
270 269 269 267 266 264 263 264 264 264 264 265 267 269 269 269 272 270 270 271 271 271 275 276 275 278 280 281 281 281 281 281 282 279 277 278 277 276 274 274 273 273 273
268 268 268 265 264 262 262 262 263 263 262 264 265 267 266 266 269 268 268 270 271 271 272 274 278 280 280 282 282 281 281 282 283 282 281 279 277 279 278 277 275 274 274
269 269 268 265 264 262 262 261 261 261 262 262 262 263 263 264 264 266 267 269 271 271 272 273 276 279 281 283 282 282 281 281 282 282 282 281 280 279 279 279 277 275 274
270 271 265 264 264 263 261 261 260 260 260 259 259 260 262 265 264 264 268 270 273 273 274 275 276 278 281 281 279 281 281 281 281 281 280 280 279 278 277 277 277 277 275
268 268 264 263 262 262 261 262 260 260 259 258 259 259 262 264 263 264 267 271 273 274 274 275 277 277 278 279 279 279 280 281 281 280 279 278 279 279 279 279 279 278 277
266 264 263 263 265 263 261 261 261 259 258 258 258 258 259 261 263 264 266 269 271 274 274 275 278 279 279 278 278 279 279 279 279 279 278 278 280 280 278 279 278 277 276
265 264 264 264 264 263 262 261 260 257 257 257 257 257 258 260 262 262 264 267 270 273 275 275 276 279 280 277 276 277 277 278 280 281 280 280 281 281 279 279 279 278 277
264 265 266 266 265 262 261 262 260 256 255 255 255 256 257 258 260 261 263 266 268 271 273 274 276 277 279 277 275 275 275 276 279 281 281 280 281 282 279 277 278 278 276
Height
5882 5881 5881 5880 5880 5879 5879 5879 5879 5879 5878 5878 5878 5877 5877 5877 5877 5877 5877 5877 5877 5877 5876 5876 5876 5875 5875 5875 5875 5875 5875 5875 5875 5875 5875 5875 5875 5875 5874 5874 5874 5874 5874
5881 5881 5880 5879 5879 5878 5878 5878 5878 5877 5877 5876 5876 5876 5876 5876 5875 5875 5875 5875 5875 5875 5874 5874 5874 5873 5873 5873 5873 5873 5872 5872 5872 5872 5872 5872 5872 5872 5872 5871 5871 5871 5871
5880 5879 5879 5878 5877 5877 5876 5876 5876 5875 5875 5875 5875 5874 5874 5874 5873 5873 5873 5873 5873 5872 5872 5871 5871 5871 5870 5870 5870 5870 5870 5870 5869 5869 5869 5869 5869 5869 5868 5868 5868 5868 5868
5877 5877 5877 5877 5876 5875 5875 5875 5874 5874 5874 5873 5873 5873 5872 5872 5871 5871 5870 5870 5870 5870 5869 5869 5868 5868 5868 5868 5867 5867 5867 5866 5866 5866 5866 5866 5866 5865 5865 5864 5864 5864 5864
5876 5875 5875 5874 5874 5873 5873 5873 5872 5872 5872 5871 5871 5871 5870 5870 5869 5868 5868 5868 5867 5867 5867 5866 5866 5865 5865 5865 5864 5864 5864 5863 5863 5863 5863 5862 5862 5862 5861 5861 5861 5861 5860
5874 5874 5873 5872 5871 5871 5871 5870 5870 5870 5870 5869 5869 5868 5868 5867 5867 5866 5866 5865 5865 5864 5864 5863 5862 5862 5862 5861 5861 5861 5860 5860 5860 5859 5859 5859 5858 5858 5858 5857 5857 5857 5857
5871 5871 5870 5870 5869 5869 5868 5868 5868 5867 5867 5867 5866 5866 5865 5864 5864 5863 5863 5862 5862 5861 5861 5860 5859 5859 5858 5858 5857 5857 5857 5856 5856 5856 5855 5855 5855 5854 5854 5853 5853 5853 5853
5868 5868 5867 5867 5866 5866 5866 5865 5865 5865 5864 5864 5863 5863 5863 5862 5861 5860 5859 5859 5858 5858 5857 5856 5856 5855 5854 5854 5853 5853 5853 5852 5852 5851 5851 5850 5850 5850 5849 5849 5849 5849 5848
5865 5864 5864 5863 5863 5863 5862 5862 5862 5862 5861 5860 5860 5860 5859 5859 5858 5857 5856 5855 5855 5854 5853 5853 5852 5851 5851 5850 5849 5849 5848 5848 5847 5847 5847 5846 5846 5845 5845 5845 5845 5844 5844
5860 5860 5860 5859 5859 5859 5859 5859 5859 5858 5858 5857 5856 5856 5855 5855 5854 5854 5853 5852 5851 5850 5850 5849 5848 5848 5847 5846 5845 5844 5844 5844 5843 5843 5842 5842 5841 5841 5841 5840 5840 5840 5839
5855 5855 5855 5855 5855 5855 5855 5855 5855 5854 5854 5853 5853 5852 5851 5850 5850 5850 5849 5848 5848 5847 5846 5845 5844 5843 5842 5841 5841 5840 5840 5839 5839 5838 5838 5837 5837 5836 5836 5835 5835 5835 5834
5849 5849 5849 5850 5850 5850 5850 5850 5850 5850 5850 5849 5848 5848 5847 5846 5846 5845 5844 5844 5843 5843 5842 5841 5840 5839 5838 5837 5836 5836 5835 5835 5834 5834 5833 5833 5832 5832 5831 5831 5830 5830 5830
5844 5844 5844 5844 5844 5844 5845 5845 5845 5845 5845 5844 5844 5843 5842 5842 5841 5840 5840 5839 5838 5838 5837 5836 5835 5834 5833 5832 5831 5831 5830 5830 5830 5829 5828 5828 5827 5827 5826 5826 5825 5825 5824
5838 5838 5838 5838 5838 5838 5839 5839 5839 5839 5839 5839 5838 5838 5838 5837 5836 5836 5835 5834 5834 5833 5832 5831 5830 5829 5828 5826 5826 5825 5825 5825 5825 5824 5823 5823 5822 5822 5821 5821 5820 5820 5820
5833 5833 5832 5832 5832 5832 5832 5833 5833 5833 5832 5832 5832 5832 5832 5832 5831 5831 5830 5829 5829 5828 5827 5826 5825 5824 5823 5822 5821 5820 5820 5820 5820 5819 5818 5818 5817 5816 5816 5815 5815 5814 5814
5826 5826 5826 5826 5826 5826 5826 5826 5826 5826 5826 5826 5826 5826 5826 5826 5826 5825 5825 5824 5823 5823 5822 5821 5820 5819 5818 5817 5816 5815 5815 5815 5814 5814 5813 5812 5811 5811 5810 5810 5809 5809 5808
5820 5819 5819 5819 5819 5819 5819 5819 5819 5819 5820 5819 5820 5820 5820 5820 5820 5819 5819 5818 5818 5817 5816 5816 5815 5814 5813 5812 5811 5810 5810 5809 5808 5808 5807 5806 5805 5805 5804 5804 5803 5802 5802
5813 5812 5812 5812 5812 5812 5812 5812 5813 5813 5813 5813 5813 5813 5814 5814 5814 5813 5813 5812 5812 5811 5811 5810 5810 5809 5808 5807 5806 5805 5804 5804 5803 5802 5801 5800 5799 5799 5798 5797 5797 5796 5795
5805 5805 5805 5805 5804 5805 5805 5805 5806 5806 5806 5806 5807 5807 5807 5808 5807 5807 5807 5806 5806 5805 5805 5804 5804 5803 5802 5802 5801 5800 5799 5798 5797 5796 5795 5794 5794 5793 5792 5791 5790 5789 5789
5798 5797 5797 5797 5797 5797 5797 5798 5798 5799 5799 5800 5800 5801 5801 5801 5801 5801 5801 5800 5800 5800 5800 5799 5799 5798 5797 5796 5795 5794 5793 5792 5791 5790 5789 5788 5788 5787 5786 5785 5784 5783 5783
5789 5789 5789 5789 5789 5789 5790 5791 5791 5792 5792 5793 5793 5794 5794 5795 5795 5795 5795 5795 5794 5794 5794 5793 5793 5792 5791 5790 5789 5788 5787 5786 5785 5784 5783 5782 5781 5780 5779 5779 5778 5777 5776
5781 5780 5780 5781 5781 5781 5782 5783 5784 5785 5785 5786 5786 5787 5788 5788 5788 5788 5788 5788 5788 5788 5787 5787 5786 5786 5785 5784 5783 5782 5781 5780 5780 5779 5777 5776 5775 5774 5773 5772 5771 5771 5770
5772 5771 5771 5772 5773 5773 5774 5775 5775 5777 5777 5778 5779 5780 5780 5781 5782 5782 5782 5782 5781 5781 5781 5780 5780 5779 5778 5777 5777 5776 5775 5774 5773 5772 5771 5771 5769 5768 5767 5766 5765 5765 5764
5762 5763 5763 5763 5764 5764 5765 5766 5766 5768 5769 5770 5771 5772 5773 5774 5774 5775 5775 5775 5775 5774 5774 5773 5773 5772 5771 5770 5769 5769 5768 5767 5767 5766 5765 5764 5763 5761 5760 5759 5759 5758 5758
5754 5754 5754 5754 5754 5755 5756 5756 5757 5758 5760 5761 5762 5763 5764 5766 5767 5767 5768 5768 5767 5767 5767 5766 5765 5764 5763 5763 5762 5762 5761 5761 5760 5759 5758 5757 5756 5754 5754 5753 5752 5751 5751
5744 5744 5744 5745 5745 5745 5746 5747 5748 5749 5751 5752 5753 5754 5756 5757 5758 5759 5760 5760 5760 5760 5759 5759 5758 5758 5757 5755 5755 5755 5754 5754 5753 5753 5751 5750 5749 5748 5747 5746 5745 5744 5744